SKY020 RJFF-RJTT

Flight info

Callsign SKY020
Flight time 1h 14m
Altitude 37000
Route IPRIR Y231 OMKAT Y235 FLUTE Y23 ARTIC Y71 XAC
Aircraft B738/M-SDE2E3FGHIRWXY/LB1

Departure

Time 2026-05-08 08:45
Airport Fukuoka Airport (RJFF)

Arrival

Time 2026-05-08 09:59
Airport Tokyo Haneda International Airport (RJTT)
Time Latitude Longitude Altitude Speed Heading
2026-05-08 08:14 33.59981 130.44550 27 ft 0 kts 61°
2026-05-08 08:34 33.59978 130.44544 23 ft 4 kts 62°
2026-05-08 08:34 33.59968 130.44514 24 ft 4 kts 76°
2026-05-08 08:34 33.59964 130.44482 26 ft 4 kts 91°
2026-05-08 08:35 33.59965 130.44465 26 ft 1 kts 96°
2026-05-08 08:35 33.59965 130.44463 26 ft 0 kts 96°
2026-05-08 08:38 33.59964 130.44465 25 ft 1 kts 107°
2026-05-08 08:38 33.59946 130.44478 23 ft 7 kts 150°
2026-05-08 08:39 33.59880 130.44522 26 ft 14 kts 152°
2026-05-08 08:39 33.59766 130.44596 25 ft 21 kts 151°
2026-05-08 08:39 33.59640 130.44680 27 ft 20 kts 150°
2026-05-08 08:39 33.59518 130.44764 28 ft 20 kts 151°
2026-05-08 08:40 33.59400 130.44840 23 ft 19 kts 159°
2026-05-08 08:40 33.59269 130.44851 26 ft 19 kts 177°
2026-05-08 08:40 33.59157 130.44917 25 ft 18 kts 147°
2026-05-08 08:40 33.59048 130.44985 29 ft 17 kts 152°
2026-05-08 08:41 33.58944 130.45055 29 ft 17 kts 150°
2026-05-08 08:41 33.58827 130.45134 30 ft 23 kts 150°
2026-05-08 08:41 33.58682 130.45233 34 ft 24 kts 150°
2026-05-08 08:41 33.58542 130.45329 33 ft 23 kts 150°
2026-05-08 08:42 33.58407 130.45421 33 ft 22 kts 150°
2026-05-08 08:42 33.58276 130.45512 33 ft 21 kts 150°
2026-05-08 08:42 33.58148 130.45599 35 ft 21 kts 150°
2026-05-08 08:42 33.58023 130.45683 37 ft 20 kts 150°
2026-05-08 08:43 33.57903 130.45765 43 ft 20 kts 150°
2026-05-08 08:43 33.57786 130.45843 43 ft 19 kts 150°
2026-05-08 08:43 33.57669 130.45906 45 ft 18 kts 175°
2026-05-08 08:43 33.57597 130.45802 44 ft 17 kts 245°
2026-05-08 08:44 33.57664 130.45702 43 ft 24 kts 330°
2026-05-08 08:44 33.58026 130.45455 38 ft 94 kts 330°
2026-05-08 08:44 33.58768 130.44951 35 ft 150 kts 328°
2026-05-08 08:44 33.59767 130.44314 515 ft 165 kts 328°
2026-05-08 08:45 33.60809 130.43665 1277 ft 170 kts 328°
2026-05-08 08:45 33.61861 130.42937 1799 ft 190 kts 325°
2026-05-08 08:45 33.63084 130.42063 2060 ft 212 kts 326°
2026-05-08 08:45 33.64441 130.41270 2566 ft 223 kts 346°
2026-05-08 08:46 33.65985 130.41461 3071 ft 242 kts 21°
2026-05-08 08:46 33.67294 130.42857 3614 ft 265 kts 53°
2026-05-08 08:46 33.68212 130.44791 4506 ft 266 kts 56°
2026-05-08 08:46 33.68967 130.46827 5416 ft 276 kts 73°
2026-05-08 08:47 33.68844 130.49174 6221 ft 293 kts 105°
2026-05-08 08:47 33.67830 130.51334 6965 ft 304 kts 129°
2026-05-08 08:47 33.66244 130.53037 7726 ft 308 kts 143°
2026-05-08 08:47 33.64494 130.54561 8450 ft 314 kts 146°
2026-05-08 08:48 33.62685 130.56059 9272 ft 316 kts 148°
2026-05-08 08:48 33.60858 130.57561 10040 ft 321 kts 149°
2026-05-08 08:48 33.58984 130.59115 10468 ft 339 kts 148°
2026-05-08 08:48 33.56979 130.60791 10644 ft 363 kts 148°
2026-05-08 08:49 33.54854 130.62583 10800 ft 384 kts 148°
2026-05-08 08:49 33.52633 130.64476 11261 ft 396 kts 148°
2026-05-08 08:49 33.50421 130.66488 11895 ft 404 kts 138°
2026-05-08 08:49 33.48820 130.69266 12553 ft 413 kts 112°
2026-05-08 08:50 33.48172 130.72617 13183 ft 417 kts 91°
2026-05-08 08:50 33.48124 130.76118 13761 ft 423 kts 88°
2026-05-08 08:50 33.48131 130.79662 14299 ft 429 kts 88°
2026-05-08 08:50 33.48144 130.83257 14841 ft 434 kts 88°
2026-05-08 08:51 33.48144 130.86880 15496 ft 435 kts 88°
2026-05-08 08:51 33.48137 130.90534 15987 ft 443 kts 89°
2026-05-08 08:51 33.48125 130.94254 16436 ft 450 kts 89°
2026-05-08 08:51 33.48103 130.98024 16943 ft 454 kts 89°
2026-05-08 08:52 33.48071 131.01808 17485 ft 457 kts 90°
2026-05-08 08:52 33.48033 131.05627 18020 ft 460 kts 90°
2026-05-08 08:52 33.47991 131.09483 18404 ft 466 kts 90°
2026-05-08 08:52 33.47942 131.13388 18748 ft 472 kts 91°
2026-05-08 08:53 33.47895 131.17330 19196 ft 475 kts 91°
2026-05-08 08:53 33.47847 131.21246 19639 ft 478 kts 91°
2026-05-08 08:53 33.47798 131.25256 20017 ft 483 kts 91°
2026-05-08 08:53 33.47746 131.29295 20393 ft 489 kts 91°
2026-05-08 08:54 33.47691 131.33400 20682 ft 496 kts 91°
2026-05-08 08:54 33.47635 131.37545 21076 ft 499 kts 92°
2026-05-08 08:54 33.47579 131.41714 21435 ft 502 kts 92°
2026-05-08 08:54 33.47521 131.45906 21787 ft 506 kts 92°
2026-05-08 08:55 33.47460 131.50135 22123 ft 510 kts 92°
2026-05-08 08:55 33.47396 131.54408 22482 ft 515 kts 93°
2026-05-08 08:55 33.47331 131.58702 22835 ft 516 kts 93°
2026-05-08 08:55 33.47266 131.63007 23282 ft 518 kts 94°
2026-05-08 08:56 33.47198 131.67331 23535 ft 522 kts 94°
2026-05-08 08:56 33.47134 131.71698 23788 ft 526 kts 92°
2026-05-08 08:56 33.47348 131.76093 24082 ft 531 kts 83°
2026-05-08 08:56 33.47955 131.80458 24395 ft 533 kts 80°
2026-05-08 08:57 33.48635 131.84845 24617 ft 538 kts 80°
2026-05-08 08:57 33.49326 131.89254 24910 ft 540 kts 80°
2026-05-08 08:57 33.50003 131.93678 25238 ft 541 kts 81°
2026-05-08 08:57 33.50660 131.98121 25545 ft 542 kts 81°
2026-05-08 08:58 33.51302 132.02583 25867 ft 543 kts 82°
2026-05-08 08:58 33.51933 132.07047 26193 ft 544 kts 82°
2026-05-08 08:58 33.52554 132.11465 26457 ft 546 kts 82°
2026-05-08 08:58 33.53187 132.15967 26667 ft 550 kts 82°
2026-05-08 08:59 33.53826 132.20508 26850 ft 554 kts 82°
2026-05-08 08:59 33.54467 132.25057 27194 ft 553 kts 82°
2026-05-08 08:59 33.55116 132.29603 27511 ft 554 kts 81°
2026-05-08 08:59 33.56029 132.34101 27738 ft 558 kts 72°
2026-05-08 09:00 33.57305 132.38501 27965 ft 560 kts 69°
2026-05-08 09:00 33.58676 132.42883 28179 ft 561 kts 69°
2026-05-08 09:00 33.60062 132.47264 28476 ft 563 kts 69°
2026-05-08 09:00 33.61440 132.51682 28574 ft 568 kts 70°
2026-05-08 09:01 33.62801 132.56147 28849 ft 569 kts 70°
2026-05-08 09:01 33.64135 132.60610 29190 ft 568 kts 71°
2026-05-08 09:01 33.65456 132.65075 29488 ft 568 kts 71°
2026-05-08 09:01 33.66775 132.69544 29815 ft 566 kts 71°
2026-05-08 09:02 33.68083 132.73991 30134 ft 567 kts 71°
2026-05-08 09:02 33.69397 132.78475 30281 ft 570 kts 71°
2026-05-08 09:02 33.70715 132.82974 30561 ft 570 kts 71°
2026-05-08 09:02 33.72027 132.87448 30978 ft 566 kts 71°
2026-05-08 09:03 33.73334 132.91903 31334 ft 565 kts 71°
2026-05-08 09:03 33.74638 132.96351 31638 ft 564 kts 71°
2026-05-08 09:03 33.75941 133.00802 31862 ft 566 kts 70°
2026-05-08 09:03 33.77247 133.05273 32072 ft 567 kts 71°
2026-05-08 09:04 33.78543 133.09723 32597 ft 562 kts 71°
2026-05-08 09:04 33.79828 133.14148 32989 ft 560 kts 70°
2026-05-08 09:04 33.81089 133.18522 33220 ft 562 kts 71°
2026-05-08 09:04 33.82363 133.22956 33584 ft 559 kts 71°
2026-05-08 09:05 33.83641 133.27413 34113 ft 555 kts 71°
2026-05-08 09:05 33.84884 133.31749 34296 ft 556 kts 71°
2026-05-08 09:05 33.86146 133.36155 34401 ft 558 kts 71°
2026-05-08 09:05 33.87410 133.40575 34556 ft 559 kts 71°
2026-05-08 09:06 33.88674 133.44998 34753 ft 559 kts 71°
2026-05-08 09:06 33.89938 133.49418 34940 ft 558 kts 71°
2026-05-08 09:06 33.91204 133.53839 35162 ft 559 kts 71°
2026-05-08 09:06 33.92473 133.58259 35337 ft 559 kts 71°
2026-05-08 09:07 33.93734 133.62682 35503 ft 558 kts 71°
2026-05-08 09:07 33.94988 133.67108 35620 ft 558 kts 71°
2026-05-08 09:07 33.96259 133.71527 35746 ft 558 kts 70°
2026-05-08 09:07 33.97517 133.75937 35942 ft 557 kts 71°
2026-05-08 09:08 33.98770 133.80349 36281 ft 554 kts 71°
2026-05-08 09:08 34.00015 133.84714 36619 ft 549 kts 71°
2026-05-08 09:08 34.01259 133.89043 36918 ft 546 kts 71°
2026-05-08 09:08 34.02495 133.93389 36869 ft 549 kts 71°
2026-05-08 09:09 34.04705 134.02159 36862 ft 545 kts 78°
2026-05-08 09:09 34.06231 134.11068 36892 ft 540 kts 80°
2026-05-08 09:10 34.07763 134.19919 36895 ft 538 kts 79°
2026-05-08 09:10 34.09379 134.28708 36867 ft 535 kts 79°
2026-05-08 09:11 34.10970 134.37425 36879 ft 538 kts 79°
2026-05-08 09:11 34.12563 134.46296 36835 ft 544 kts 80°
2026-05-08 09:12 34.14175 134.55312 36867 ft 548 kts 80°
2026-05-08 09:12 34.15774 134.64271 36891 ft 551 kts 80°
2026-05-08 09:13 34.17383 134.73322 36851 ft 550 kts 80°
2026-05-08 09:13 34.18971 134.82290 36855 ft 541 kts 80°
2026-05-08 09:14 34.20533 134.91172 36888 ft 541 kts 80°
2026-05-08 09:14 34.22093 135.00074 36851 ft 541 kts 80°
2026-05-08 09:15 34.23614 135.08953 36849 ft 541 kts 81°
2026-05-08 09:15 34.25125 135.17894 36818 ft 542 kts 81°
2026-05-08 09:16 34.26629 135.26809 36836 ft 542 kts 81°
2026-05-08 09:16 34.28135 135.35761 36848 ft 543 kts 81°
2026-05-08 09:17 34.29638 135.44731 36845 ft 544 kts 81°
2026-05-08 09:17 34.31136 135.53716 36849 ft 545 kts 81°
2026-05-08 09:18 34.32628 135.62708 36859 ft 546 kts 82°
2026-05-08 09:18 34.34116 135.71715 36853 ft 546 kts 82°
2026-05-08 09:19 34.35597 135.80730 36864 ft 546 kts 82°
2026-05-08 09:19 34.37068 135.89718 36828 ft 544 kts 82°
2026-05-08 09:20 34.38526 135.98692 36861 ft 542 kts 82°
2026-05-08 09:20 34.39979 136.07645 36844 ft 542 kts 82°
2026-05-08 09:21 34.41420 136.16591 36836 ft 540 kts 82°
2026-05-08 09:23 34.46364 136.47800 36781 ft 541 kts 82°
2026-05-08 09:23 34.47765 136.56733 36808 ft 541 kts 83°
2026-05-08 09:24 34.48930 136.64197 36805 ft 542 kts 83°
2026-05-08 09:24 34.50335 136.73241 36805 ft 542 kts 83°
2026-05-08 09:25 34.51716 136.82175 36802 ft 543 kts 83°
2026-05-08 09:25 34.53103 136.91191 36809 ft 544 kts 83°
2026-05-08 09:26 34.54098 137.00311 36800 ft 538 kts 94°
2026-05-08 09:26 34.54118 137.09376 36807 ft 538 kts 96°
2026-05-08 09:27 34.54086 137.18455 36801 ft 539 kts 96°
2026-05-08 09:27 34.54123 137.27544 36806 ft 540 kts 95°
2026-05-08 09:28 34.54186 137.36598 36788 ft 540 kts 95°
2026-05-08 09:28 34.54240 137.45706 36784 ft 540 kts 95°
2026-05-08 09:29 34.54282 137.54816 36752 ft 540 kts 95°
2026-05-08 09:29 34.54313 137.63912 36785 ft 539 kts 95°
2026-05-08 09:30 34.54324 137.72908 36753 ft 523 kts 96°
2026-05-08 09:30 34.54329 137.77274 36771 ft 512 kts 96°
2026-05-08 09:30 34.54329 137.81591 36776 ft 510 kts 96°
2026-05-08 09:31 34.54316 137.90210 36807 ft 514 kts 96°
2026-05-08 09:31 34.54305 137.98928 36739 ft 520 kts 96°
2026-05-08 09:32 34.54293 138.07697 36770 ft 521 kts 96°
2026-05-08 09:32 34.54273 138.16499 36778 ft 522 kts 96°
2026-05-08 09:33 34.54249 138.25295 36771 ft 522 kts 96°
2026-05-08 09:33 34.54308 138.34094 36764 ft 525 kts 89°
2026-05-08 09:34 34.55916 138.42752 36788 ft 530 kts 70°
2026-05-08 09:34 34.59147 138.50771 36796 ft 529 kts 62°
2026-05-08 09:35 34.62561 138.58663 36785 ft 527 kts 63°
2026-05-08 09:35 34.65873 138.66593 36769 ft 526 kts 64°
2026-05-08 09:36 34.69118 138.74476 36473 ft 515 kts 65°
2026-05-08 09:36 34.70457 138.78444 35977 ft 514 kts 75°
2026-05-08 09:36 34.71312 138.82600 35419 ft 513 kts 85°
2026-05-08 09:36 34.71708 138.86937 34935 ft 505 kts 95°
2026-05-08 09:37 34.71654 138.91164 34621 ft 497 kts 98°
2026-05-08 09:37 34.71553 138.95334 34350 ft 491 kts 97°
2026-05-08 09:37 34.71493 138.99479 33974 ft 490 kts 96°
2026-05-08 09:37 34.71465 139.03614 33508 ft 490 kts 96°
2026-05-08 09:38 34.71444 139.07759 33088 ft 488 kts 96°
2026-05-08 09:38 34.71424 139.11863 32752 ft 484 kts 96°
2026-05-08 09:38 34.71402 139.15935 32435 ft 480 kts 96°
2026-05-08 09:38 34.71349 139.19967 32080 ft 475 kts 98°
2026-05-08 09:39 34.71184 139.23968 31707 ft 472 kts 99°
2026-05-08 09:39 34.71283 139.27952 31246 ft 475 kts 82°
2026-05-08 09:39 34.72281 139.31766 30691 ft 473 kts 62°
2026-05-08 09:39 34.73996 139.35143 30173 ft 466 kts 47°
2026-05-08 09:40 34.76124 139.38058 29669 ft 459 kts 43°
2026-05-08 09:40 34.78279 139.40898 29093 ft 455 kts 43°
2026-05-08 09:40 34.80415 139.43722 28467 ft 452 kts 43°
2026-05-08 09:40 34.82537 139.46551 27784 ft 452 kts 43°
2026-05-08 09:41 34.84657 139.49400 27041 ft 455 kts 44°
2026-05-08 09:41 34.86781 139.52276 26324 ft 458 kts 44°
2026-05-08 09:41 34.88907 139.55168 25623 ft 459 kts 44°
2026-05-08 09:41 34.91000 139.58025 24931 ft 459 kts 45°
2026-05-08 09:42 34.93132 139.60941 24139 ft 462 kts 45°
2026-05-08 09:42 34.95303 139.63911 23359 ft 464 kts 45°
2026-05-08 09:42 34.97451 139.66852 22454 ft 465 kts 45°
2026-05-08 09:42 34.99572 139.69759 21586 ft 465 kts 45°
2026-05-08 09:43 35.01722 139.72707 20716 ft 465 kts 46°
2026-05-08 09:43 35.03869 139.75654 19875 ft 464 kts 46°
2026-05-08 09:43 35.06000 139.78582 19264 ft 457 kts 46°
2026-05-08 09:43 35.08071 139.81433 19016 ft 440 kts 46°
2026-05-08 09:44 35.10125 139.84260 18215 ft 442 kts 46°
2026-05-08 09:44 35.12151 139.87034 17357 ft 442 kts 45°
2026-05-08 09:44 35.14218 139.89808 16492 ft 441 kts 46°
2026-05-08 09:44 35.16247 139.92616 15643 ft 440 kts 46°
2026-05-08 09:45 35.18265 139.95412 14786 ft 437 kts 45°
2026-05-08 09:45 35.20291 139.98161 13994 ft 433 kts 47°
2026-05-08 09:45 35.22235 140.00958 13131 ft 429 kts 47°
2026-05-08 09:45 35.24192 140.03696 12253 ft 425 kts 46°
2026-05-08 09:46 35.26115 140.06356 12023 ft 405 kts 46°
2026-05-08 09:46 35.27928 140.08859 11982 ft 381 kts 46°
2026-05-08 09:46 35.29633 140.11216 11939 ft 360 kts 46°
2026-05-08 09:46 35.31254 140.13452 11798 ft 343 kts 46°
2026-05-08 09:47 35.32795 140.15595 11641 ft 329 kts 46°
2026-05-08 09:47 35.34303 140.17692 11235 ft 326 kts 46°
2026-05-08 09:47 35.35796 140.19773 10751 ft 327 kts 45°
2026-05-08 09:47 35.37558 140.21469 10197 ft 319 kts 17°
2026-05-08 09:48 35.39644 140.21931 9749 ft 297 kts 348°
2026-05-08 09:48 35.41679 140.21702 9381 ft 294 kts 345°
2026-05-08 09:48 35.43718 140.21443 9100 ft 292 kts 345°
2026-05-08 09:48 35.45735 140.21205 8831 ft 291 kts 347°
2026-05-08 09:49 35.47745 140.20985 8569 ft 289 kts 347°
2026-05-08 09:49 35.49745 140.20776 8272 ft 288 kts 347°
2026-05-08 09:49 35.51728 140.20571 8047 ft 285 kts 347°
2026-05-08 09:49 35.53602 140.20060 7831 ft 266 kts 323°
2026-05-08 09:50 35.55102 140.18869 7757 ft 251 kts 317°
2026-05-08 09:50 35.56517 140.17684 7673 ft 242 kts 317°
2026-05-08 09:50 35.57891 140.16538 7544 ft 235 kts 317°
2026-05-08 09:50 35.59232 140.15420 7355 ft 231 kts 317°
2026-05-08 09:51 35.60321 140.14129 7268 ft 204 kts 288°
2026-05-08 09:51 35.60556 140.12531 7040 ft 187 kts 266°
2026-05-08 09:51 35.60549 140.10929 6697 ft 188 kts 266°
2026-05-08 09:51 35.60545 140.09324 6372 ft 189 kts 267°
2026-05-08 09:52 35.60538 140.07717 6049 ft 192 kts 267°
2026-05-08 09:52 35.60530 140.06085 5725 ft 190 kts 267°
2026-05-08 09:52 35.60521 140.04465 5377 ft 188 kts 266°
2026-05-08 09:52 35.60512 140.02848 5015 ft 185 kts 266°
2026-05-08 09:53 35.60503 140.01283 4492 ft 190 kts 266°
2026-05-08 09:53 35.60494 139.99655 4033 ft 189 kts 265°
2026-05-08 09:53 35.60485 139.98064 3659 ft 183 kts 265°
2026-05-08 09:53 35.60577 139.96519 3290 ft 183 kts 282°
2026-05-08 09:54 35.61245 139.95206 3031 ft 185 kts 311°
2026-05-08 09:54 35.62394 139.94478 2780 ft 189 kts 333°
2026-05-08 09:54 35.63549 139.93816 2528 ft 179 kts 309°
2026-05-08 09:54 35.64380 139.92688 2534 ft 178 kts 296°
2026-05-08 09:55 35.64895 139.91385 2508 ft 166 kts 277°
2026-05-08 09:55 35.65096 139.90055 2495 ft 157 kts 265°
2026-05-08 09:55 35.64955 139.88764 2463 ft 154 kts 248°
2026-05-08 09:55 35.64608 139.87507 2347 ft 153 kts 248°
2026-05-08 09:56 35.64283 139.86325 2178 ft 139 kts 248°
2026-05-08 09:56 35.63887 139.85294 2007 ft 131 kts 235°
2026-05-08 09:56 35.63366 139.84395 1778 ft 128 kts 232°
2026-05-08 09:56 35.62799 139.83572 1562 ft 123 kts 227°
2026-05-08 09:57 35.61536 139.82155 1236 ft 128 kts 221°
2026-05-08 09:57 35.60868 139.81415 1058 ft 128 kts 218°
2026-05-08 09:57 35.60174 139.80706 813 ft 134 kts 217°
2026-05-08 09:58 35.59427 139.79977 671 ft 138 kts 215°
2026-05-08 09:58 35.58664 139.79301 485 ft 131 kts 212°
2026-05-08 09:58 35.57917 139.78682 348 ft 127 kts 211°
2026-05-08 09:58 35.57163 139.78056 155 ft 130 kts 212°
2026-05-08 09:59 35.56471 139.77461 30 ft 114 kts 213°
2026-05-08 09:59 35.56085 139.77139 24 ft 37 kts 214°
2026-05-08 09:59 35.55893 139.76983 27 ft 30 kts 215°
2026-05-08 09:59 35.55702 139.76909 23 ft 28 kts 190°
2026-05-08 10:00 35.55552 139.76963 22 ft 20 kts 149°
2026-05-08 10:00 35.55532 139.77065 22 ft 8 kts 68°
2026-05-08 10:00 35.55545 139.77082 23 ft 0 kts 36°
2026-05-08 10:00 35.55548 139.77085 23 ft 4 kts 36°
2026-05-08 10:01 35.55605 139.77136 27 ft 16 kts 35°
2026-05-08 10:01 35.55728 139.77243 23 ft 25 kts 37°
2026-05-08 10:01 35.55682 139.77384 22 ft 21 kts 152°
2026-05-08 10:01 35.55624 139.77492 27 ft 12 kts 73°
2026-05-08 10:02 35.55598 139.77575 24 ft 12 kts 138°
2026-05-08 10:02 35.55527 139.77623 25 ft 12 kts 154°
2026-05-08 10:02 35.55456 139.77667 24 ft 11 kts 152°
2026-05-08 10:02 35.55391 139.77717 26 ft 11 kts 140°
2026-05-08 10:03 35.55371 139.77797 23 ft 10 kts 72°
2026-05-08 10:03 35.55363 139.77872 25 ft 10 kts 135°
2026-05-08 10:03 35.55307 139.77917 24 ft 9 kts 149°
2026-05-08 10:03 35.55281 139.77983 23 ft 9 kts 80°
2026-05-08 10:04 35.55308 139.78055 23 ft 9 kts 64°
2026-05-08 10:04 35.55285 139.78093 24 ft 6 kts 155°
2026-05-08 10:04 35.55267 139.78103 24 ft 0 kts 153°
2026-05-08 10:04 35.55257 139.78109 25 ft 3 kts 150°
2026-05-08 10:05 35.55254 139.78112 24 ft 0 kts 150°